Regional Weather Roundup
Issued by NWS Wakefield, VA

Home | Current Version | Previous Version | Text Only | Print | Product List | Glossary On
Versions: 1 2 3 4 5 6 7 8 9 10 11 12 13 14 15 16 17 18 19 20 21 22 23 24 25 26 27
000
ASUS41 KAKQ 241410
RWRAKQ

REGIONAL WEATHER ROUNDUP
NATIONAL WEATHER SERVICE WAKEFIELD VA
1000 AM EDT THU APR 24 2014

Note: "fair" indicates few or no clouds below 12,000 feet with no
significant weather and/or obstructions to visibility. * = Denotes
station may not report precipitation (e.g., rain,snow,etc.),
thunder or fog.

VAZ042-051-052>054-056-241500-
NORTHERN VIRGINIA

CITY           SKY/WX    TMP DP  RH WIND       PRES   REMARKS
WASH NATIONAL  MOSUNNY   52  22  30 NW14      30.14S
DULLES         MOSUNNY   49  18  29 NW13G22   30.14S
FORT BELVOIR   SUNNY     52  19  28 N10G17    30.15S
QUANTICO       MOSUNNY   52  18  26 N12G21    30.16S
FREDERICKSBRG* MOSUNNY   53  22  29 NW8       30.14F
STAFFORD*      MOSUNNY   53  24  32 N10G21    30.19S
WARRENTON      SUNNY     51  29  43 NW7       30.15S
CULPEPER*      PTSUNNY   54  16  22 N10G17    30.16S
MANASSAS*      NOT AVBL
LEESBURG*      SUNNY     50  27  40 N13G20    30.14F
WINCHESTER     MOSUNNY   50  21  32 NW3       30.14F
$$

VAZ048-049-060>072-079>083-241500-
CENTRAL AND SOUTH CENTRAL VIRGINIA...AND NORTH CENTRAL NORTH CAROLINA

CITY           SKY/WX    TMP DP  RH WIND       PRES   REMARKS
RICHMOND       MOSUNNY   55  23  28 N13       30.14F
CHESTERFIELD*  SUNNY     55  25  30 N10       30.16R
HANOVER        SUNNY     53  24  32 NW10      30.16S
TAPPAHANNOCK*  SUNNY     53  18  25 NW7       30.14S
CHARLOTTSVILLE MOSUNNY   49  19  30 SE3       30.14S
ORANGE*        MOSUNNY   52  23  32 N10       30.16S
LOUISA*        SUNNY     52  27  37 CALM      30.14S
FARMVILLE*     MOSUNNY   57  28  33 NE6       30.12S
SOUTH HILL*    SUNNY     55  32  41 N7        30.18F
ROANOKE RAPIDS SUNNY     57  32  38 N9        30.14S
RALEIGH        PTSUNNY   57  32  38 SE5       30.15S
$$

VAZ088>098-241500-
SOUTHEAST VIRGINIA

CITY           SKY/WX    TMP DP  RH WIND       PRES   REMARKS
NORFOLK        SUNNY     53  30  41 N14G21    30.12R
VIRGINIA BEACH SUNNY     54  31  41 N16       30.11R
NORFOLK NAVAL  MOSUNNY   56  29  35 N9        30.14R
WEST POINT*      N/A    N/A N/A N/A MISG        N/A
NEWPORT NEWS   SUNNY     57  27  31 N12       30.13R
LANGLEY AFB    SUNNY     54  29  38 N13       30.13R
FORT EUSTIS    SUNNY     54  33  44 NW8       30.12R
WILLIAMSBURG*  SUNNY     55  28  35 N9G17     30.14S
FRANKLIN*      SUNNY     57  27  30 N10       30.14S
WAKEFIELD      SUNNY     55  23  28 VRB7      30.14R
$$

VAZ020-022-025-037-045-241500-
WESTERN AND SOUTHWEST VIRGINIA

CITY           SKY/WX    TMP DP  RH WIND       PRES   REMARKS
STAUNTON*      CLOUDY    45  29  53 CALM      30.16S
HOT SPRINGS VA CLOUDY    43  19  39 CALM      30.14R
LYNCHBURG      PTSUNNY   58  27  30 VRB3      30.15R
DANVILLE       SUNNY     56  33  42 VRB3      30.14R
MARTINSVILLE   SUNNY     57  35  43 CALM      30.17R
ROANOKE        CLOUDY    51  33  50 N5        30.16R
BLACKSBURG     PTSUNNY   52  36  54 CALM      30.16R
DUBLIN*        CLOUDY    48  33  56 CALM      30.15R
MARION*        PTSUNNY   52  32  47 E9        30.14S
HILLSVILLE*    PTSUNNY   50  27  40 E3        30.15S
RICHLANDS*     CLOUDY    53  34  48 NE5       30.09R
WISE*          CLOUDY    54  28  37 E5        30.09S
ABINGDON*      CLOUDY    55  33  43 E8        30.09S
$$

MDZ021>025-VAZ099-100-241500-
SOUTHERN MARYLAND AND THE DELMARVA PENINSULA

CITY           SKY/WX    TMP DP  RH WIND       PRES   REMARKS
PATUXENT RIVER MOSUNNY   54  19  25 NW12      30.12R
BAY BRIDGE APT SUNNY     50  23  34 NW13G21   30.11S
LEONARDTOWN    SUNNY     52  21  30 NW8G17    30.14R
DOVER          SUNNY     51  21  30 NW20G25   30.02F
GEORGETOWN     SUNNY     53  21  28 NW12G18   30.06S
EASTON         SUNNY     52  27  37 N13G22    30.13S
CAMBRIDGE      SUNNY     52  23  32 N17       30.10R
SALISBURY      SUNNY     54  23  30 NW15G25   30.07S
OCEAN CITY     SUNNY     53  22  29 NW16G25   30.05S
WALLOPS ISLAND SUNNY     55  26  32 N17G24    30.08R
ACCOMACK*      SUNNY     52  28  40 NW12G22   30.10R
$$

NCZ012>017-030>032-241500-
EASTERN NORTH CAROLINA

CITY           SKY/WX    TMP DP  RH WIND       PRES   REMARKS
ELIZABETH CITY SUNNY     55  31  39 N9        30.12S
AHOSKIE*       SUNNY     55  28  35 N10       30.14S
EDENTON*       SUNNY     55  30  38 N9        30.13S
CURRITUCK*     SUNNY     57  27  31 NW9       30.12S
KILL DEVIL HLS SUNNY     53  36  52 N9        30.11R
MANTEO         SUNNY     53  36  52 NE10      30.12R
CAPE HATTERAS  SUNNY     56  36  47 N9G22     30.12R
GOLDSBORO      SUNNY     56  32  40 NE6       30.14R
WASHINGTON     SUNNY     58  24  26 NE8       30.14S
GREENVILLE     SUNNY     55  30  38 N8        30.16R
NEW BERN       SUNNY     58  34  40 CALM      30.16R
WILMINGTON     SUNNY     63  35  35 NE13      30.13R
$$

VAZ048-241500-
ELSEWHERE

CITY           SKY/WX    TMP DP  RH WIND       PRES   REMARKS
HARRISBURG PA  SUNNY     50  16  25 NW13G23   30.10S
BALTIMORE      MOSUNNY   50  20  30 N10G20    30.10F
ANNAPOLIS      SUNNY     50  25  37 NW14G24   30.11S
ANDREWS AFB    SUNNY     51  21  31 NW10      30.12S
WILMINGTON DE  SUNNY     50  20  30 NW18G28   30.08R
PHILADELPHIA   SUNNY     49  13  23 NW17G28   30.06R
WILDWOOD NJ*   SUNNY     48  21  34 NW13G26   30.05R
ATLANTIC CITY  SUNNY     51  16  24 NW23G33   30.00R
HENDERSON NC   SUNNY     55  31  39 N5        30.14S
GREENSBORO     PTSUNNY   57  31  37 NE8       30.13R
ROCKY MOUNT    SUNNY     56  31  38 N7        30.15R
FAYETTEVILLE   SUNNY     60  35  39 E10       30.14R
CHARLOTTE      MOSUNNY   59  33  37 VRB6      30.15R
$$

VAZ100-241500-
MARINE

STATION/POSITION TIME  TEMP    WIND        PRES    WAVE   SWELL
                       AIR SEA DIR/SP/G            HT/PER HT/PER
                 (UTC) (F)     (DEG/KT/KT) (MB)    (FT/S) (FT/S)
44066 TX TWR #4  1400   44 45  300/ 23/ 29 1011.8R   8/ 7
CAPE MAY NJ      1400   48 57  330/ 24/ 30 1016.9R
LEWES DE         1400   48 51  330/ 24/ 30 1016.7F
15NM E FENWICK I 1400   47 46              1016.7R   4/ 5
OCEAN-CITY-INLET 1400   49 48  330/ 16/ 21 1017.2S
WACHAPREAGUE VA  1400   54 54  290/  4/ 13 1018.7R
THOMAS POINT MD  1400   48 53  320/ 15/ 18 1019.9F
GOOSES REEF MD   1400   48     350/ 16/ 19   N/A
COVE POINT MD    1400   48     350/ 18/ 20 1019.6R
SOLOMONS ISLAND  1400      54                N/A
BISHOPS HEAD MD  1400   50 52  320/ 14/ 18 1019.1R
PINEY POINT MD   1400          330/ 15/ 16   N/A
POTOMAC MD       1400   50     330/ 14/ 16 1019.1R
CAMBRIDGE MD     1400   49 56  320/ 17/ 20 1018.6F
LEWISETTA VA     1400   50 56  340/ 10/ 16 1020.0R
RAPPAHANNOCK LGT 1400          320/ 18/ 19 1020.1R
STINGRAY PT      1400   50     330/ 10/ 14 1019.9R
YORK RVR RNG VA  1400   50     350/ 14/ 16 1019.2S
YORKTOWN VA      1400   50 56  300/ 13/ 15 1019.9S
JAMESTOWN VA     1400   51     350/ 12/ 16   N/A
DOMINION TERM VA 1400   53     330/  4/ 11 1020.1R
KIPTOPEKE VA     1400      55  340/ 18/ 21   N/A
CHES BAY BRIDGE  1400   50 54  310/ 14/ 16 1019.9R
CAPE HENRY VA    1400   50     320/ 15/ 17   N/A
CHESAPEAKE LGHT  1300   49     340/ 16/ 17 1019.7R
WILLOUBY STN VA  1400   51     340/ 10/ 13 1019.3R
S CRANEY ISL VA  1400          330/ 10/ 14 1020.2R
CAPE HENRY BUOY  1400      47                N/A     3/ 4
1ST LANDING BUOY 1400      49                N/A     3/ 3   2/14
64NM E OF VA BCH 1400   49 48  320/ 14/ 17 1018.7R   6/ 6   2/ 9
DUCK PIER NC     1400   50 52   10/ 13/ 15 1018.6S
44100 DUCK FRF   1400      49                N/A     4/ 6
44056 DUCK FRF   1400      51                N/A     3/ 5
OREGON INLET NC  1400   52 54  340/ 14/ 19 1019.8R
HATTERAS NC      1400   53 61  360/ 11/ 14 1020.1R
DIAMOND SHLS NC  1300   54 73  360/ 17/ 21 1018.5R   6/ 7   2/ 9
CAPE LOOKOUT NC  1300   56      40/ 13/ 16 1019.6R
FRYING PAN SHLS  1400   63 67   50/ 19/ 23 1018.4R   5/ 5   2/ 8
$$



USA.gov is the U.S. government's official web portal to all federal, state and local government web resources and services.